[[{"header":{"parameterUnit":"m.s-1","parameterCategory":1,"la1":30.2991,"la2":30.254,"lo1":-89.0895,"lo2":-89.0444,"dy":0.0017,"dx":0.0017,"nx":28,"ny":28,"refTime":"2023-04-12T21:00:00:Z","depth":0,"parameterNumber":2,"parameterNumberName":"U-component_of_WINDS"},"data":[0,0,0,0,0,0,0,0,0,0,0,0,0,0,0,0,0,0,0,0,0,0,0,0,0,0,0,0,0,0,0,0,0,0,0,0,0,0,0,0,0,0,0,0,0,0,0,0,0,0,0,0,0,0,0,0,0,0,5.2014,5.2016,0,5.2248,5.2251,5.2254,5.2203,5.2198,5.2194,5.219,5.2438,5.2448,5.2459,0,0,0,0,0,0,0,0,0,0,0,0,0,5.1527,5.1536,5.2013,5.2016,5.2019,5.2248,5.2251,5.2254,5.2204,5.2198,5.2193,5.2188,5.2434,5.2447,5.246,0,0,0,0,0,0,0,0,0,0,0,0,0,5.1748,5.1539,5.2013,5.2021,5.2024,5.2247,5.2251,5.2255,5.2205,5.2198,5.2192,5.2185,5.243,5.2446,5.2462,5.2693,0,0,5.2511,5.2518,0,0,0,0,0,0,0,0,5.1736,5.1766,5.2017,5.2021,5.2025,5.2189,5.217,5.2402,5.2206,5.2137,5.219,5.2182,5.2361,5.2382,5.2441,5.2704,5.2715,5.2512,5.2522,5.2529,5.2533,0,0,0,0,0,0,0,5.172,5.1756,5.2107,5.2021,5.2026,5.2015,5.2039,5.2214,5.2283,5.2142,5.2139,5.2167,5.2362,5.2426,5.2447,5.2719,5.2512,5.2526,5.2536,5.2542,5.3184,5.3191,0,0,0,0,0,0,5.1701,5.1743,5.2099,5.2114,5.1861,5.2029,5.2056,5.2143,5.2281,5.2296,5.2172,5.2164,5.2402,5.2428,5.2455,5.2736,5.2529,5.2544,5.2553,5.3176,5.3185,5.3193,0,0,0,0,0,0,5.169,5.1733,5.209,5.1928,5.1972,5.2045,5.2143,5.2152,5.2215,5.2304,5.2317,5.2225,5.2397,5.2433,5.2634,5.2743,5.2551,5.2566,5.3168,5.3179,5.3189,5.3298,0,0,0,0,0,0,5.1677,5.1729,5.1817,5.193,5.1981,5.2263,5.215,5.2161,5.2242,5.2233,5.2356,5.237,5.2395,5.261,5.265,5.2762,5.2578,5.3158,5.3173,5.3186,5.3285,5.3311,5.3334,0,0,0,0,0,5.1659,5.184,5.1822,5.1865,5.2091,5.2269,5.2299,5.2321,5.2251,5.2341,5.2397,5.2367,5.2724,5.2631,5.2675,5.2794,5.3151,5.3169,5.3185,5.3274,5.3306,5.3333,0,0,0,0,0,0,5.1742,5.1855,5.1836,5.2058,5.2154,5.226,5.2374,5.2355,5.2475,5.2462,5.2486,5.2514,5.2719,5.2776,5.2671,5.3025,5.2928,5.2954,5.2981,5.3012,5.3036,5.3019,5.2591,0,0,0,0,0,5.1785,5.1917,5.201,5.2197,5.2246,5.2302,5.238,5.2388,5.249,5.2531,5.2603,5.2704,5.2839,5.2928,5.3058,5.3291,5.3319,5.3395,5.3419,5.3439,5.3463,5.3591,5.3627,5.3248,5.3248,5.3248,0,0,5.1877,5.1955,5.2038,5.2216,5.2291,5.243,5.2337,5.2488,5.2591,5.2555,5.2749,5.2805,5.292,5.3138,5.3238,5.3192,5.3572,5.346,5.3475,5.3489,5.3612,5.3648,5.3679,5.3259,5.3257,5.3255,0,0,5.2116,5.2188,5.2351,5.2428,5.2542,5.2577,5.2616,5.2726,5.276,5.2954,5.293,5.3054,5.3286,5.3369,5.3442,5.371,5.3687,5.3751,5.3881,5.4005,5.4035,5.4062,5.4159,5.4193,5.3774,5.3774,5.3774,0,5.2218,5.2423,5.2439,5.2592,5.2671,5.264,5.2807,5.2882,5.3034,5.309,5.3035,5.3325,5.34,5.3638,5.3703,5.3762,5.3809,5.3739,5.4029,5.4056,5.4081,5.4174,5.421,5.3781,5.378,5.3779,5.3779,0,5.2543,5.2686,5.2805,5.2949,5.3041,5.32,5.3241,5.3333,5.3333,5.3374,5.3573,5.3661,5.3808,5.3864,5.3867,5.4103,5.407,5.4022,5.3926,5.4124,5.4212,5.4248,5.3791,5.3789,5.3787,5.3785,0,0,5.2844,5.2992,5.3035,5.31,5.3222,5.3334,5.3492,5.3632,5.3711,5.3816,5.3951,5.4146,5.4102,5.4184,5.4195,5.4305,5.4512,5.4243,5.4246,5.4292,5.4779,5.4816,5.4857,5.4496,5.4503,5.4508,5.477,0,5.3096,5.3372,5.3389,5.364,5.3773,5.3744,5.3882,5.3973,5.4015,5.4136,5.4183,5.4322,5.4252,5.4302,5.4408,5.4464,5.4611,5.4445,5.4624,5.463,5.4598,5.4902,5.4943,5.5186,5.4804,5.481,5.4814,0,5.3428,5.3539,5.3803,5.3904,5.3961,5.4084,5.4214,5.4328,5.4431,5.4454,5.4544,5.454,5.4703,5.4598,5.4825,5.4712,5.4786,5.4824,5.4834,5.4854,5.4736,5.4933,5.5263,5.5301,5.4868,5.4864,5.486,0,5.3623,5.3839,5.4025,5.4081,5.4204,5.4291,5.4347,5.4442,5.4525,5.4639,5.4693,5.4825,5.4899,5.5002,5.5033,5.4953,5.526,5.5157,5.5286,5.5285,5.5354,5.535,5.5704,5.5398,5.5397,5.5396,5.5396,0,5.3904,5.4067,5.4114,5.4228,5.441,5.4428,5.4608,5.4658,5.4743,5.4868,5.4851,5.497,5.5003,5.5127,5.5153,5.5338,5.5371,5.5395,5.5401,5.5399,5.5396,5.5449,5.5434,5.5406,5.5404,5.5402,5.54,0,5.4155,5.4193,5.4393,5.4491,5.452,5.465,5.4735,5.4846,5.4884,5.5042,5.5081,5.5142,5.5288,5.5328,5.5504,5.5521,5.5738,5.5727,5.5703,5.5704,5.5831,5.5819,5.6234,5.629,5.5945,5.5948,5.5951,0,5.4333,5.4457,5.4568,5.4649,5.4708,5.4839,5.4922,5.4944,5.5032,5.5157,5.5253,5.5395,5.5511,5.5745,5.5807,5.5941,5.5934,5.607,5.5955,5.5948,5.5939,5.5932,5.5945,5.6093,5.6097,5.61,5.6102,0,5.4646,5.4658,5.4777,5.4904,5.5002,5.5104,5.5201,5.5269,5.5304,5.5404,5.5551,5.564,5.5817,5.596,5.6095,5.6155,5.6136,5.6137,5.6174,5.6175,5.6156,5.617,5.5765,5.6129,5.6126,5.6124,5.6123,5.6122,5.4868,5.4977,5.5071,5.5204,5.5278,5.5369,5.5477,5.5527,5.5649,5.5793,5.5799,5.5959,5.6058,5.6236,5.6303,5.6429,5.639,5.6443,5.6457,5.6471,5.6482,5.6133,5.6454,5.6453,5.6453,5.6452,5.6452,0,5.5182,5.5239,5.5362,5.5496,5.5601,5.5569,5.5675,5.5766,5.5906,5.5997,5.611,5.6279,5.6416,5.6487,5.6624,5.6712,5.6707,5.6748,5.6743,5.6757,5.6509,5.6464,5.675,5.6749,5.6749,5.6749,5.6749,5.6749,5.5357,5.5539,5.5562,5.578,5.5838,5.5992,5.6055,5.6139,5.6212,5.64,5.6513,5.6556,5.6641,5.6783,5.6908,5.6926,5.6978,5.7024,5.7037,5.6805,5.6775,5.6746,5.6703,5.7034,5.7035,5.7274,5.7277,5.7278]},{"header":{"parameterUnit":"m.s-1","parameterCategory":1,"la1":30.2991,"la2":30.254,"lo1":-89.0895,"lo2":-89.0444,"dy":0.0017,"dx":0.0017,"nx":28,"ny":28,"refTime":"2023-04-12T21:00:00:Z","depth":0,"parameterNumber":3,"parameterNumberName":"V-component_of_WINDS"},"data":[0,0,0,0,0,0,0,0,0,0,0,0,0,0,0,0,0,0,0,0,0,0,0,0,0,0,0,0,0,0,0,0,0,0,0,0,0,0,0,0,0,0,0,0,0,0,0,0,0,0,0,0,0,0,0,0,0,0,-0.683,-0.6831,0,-0.6901,-0.6902,-0.6902,-0.6946,-0.6946,-0.6946,-0.6947,-0.7018,-0.702,-0.7021,0,0,0,0,0,0,0,0,0,0,0,0,0,-0.6733,-0.6734,-0.683,-0.6831,-0.6832,-0.6901,-0.6902,-0.6903,-0.6946,-0.6946,-0.6946,-0.6947,-0.7017,-0.7019,-0.7021,0,0,0,0,0,0,0,0,0,0,0,0,0,-0.6786,-0.6735,-0.683,-0.6862,-0.6866,-0.69,-0.6902,-0.6903,-0.6946,-0.6946,-0.6946,-0.6947,-0.7017,-0.7019,-0.7022,-0.703,0,0,-0.7029,-0.7031,0,0,0,0,0,0,0,0,-0.6783,-0.679,-0.6856,-0.686,-0.6864,-0.6915,-0.6894,-0.6946,-0.6946,-0.6915,-0.6947,-0.6947,-0.6983,-0.6989,-0.7001,-0.7034,-0.7037,-0.703,-0.7031,-0.7032,-0.7033,0,0,0,0,0,0,0,-0.678,-0.6787,-0.6858,-0.6857,-0.6862,-0.6873,-0.6881,-0.6904,-0.6946,-0.6918,-0.6921,-0.6929,-0.6985,-0.6999,-0.7003,-0.7038,-0.703,-0.7032,-0.7033,-0.7034,-0.7081,-0.708,0,0,0,0,0,0,-0.6771,-0.6784,-0.6856,-0.686,-0.6824,-0.6874,-0.6883,-0.6898,-0.6946,-0.6954,-0.6929,-0.6931,-0.6994,-0.7,-0.7006,-0.7019,-0.7032,-0.7035,-0.7036,-0.7081,-0.708,-0.708,0,0,0,0,0,0,-0.6769,-0.6777,-0.6853,-0.6823,-0.6834,-0.6875,-0.6892,-0.6899,-0.6913,-0.6954,-0.6962,-0.6934,-0.6995,-0.7002,-0.7024,-0.7022,-0.7036,-0.7038,-0.7081,-0.7081,-0.708,-0.7044,0,0,0,0,0,0,-0.6766,-0.6776,-0.678,-0.6823,-0.6835,-0.687,-0.6892,-0.6901,-0.6917,-0.692,-0.6962,-0.6969,-0.6995,-0.702,-0.7026,-0.7025,-0.704,-0.7082,-0.7081,-0.708,-0.7046,-0.7043,-0.704,0,0,0,0,0,-0.6762,-0.6767,-0.678,-0.6788,-0.6841,-0.687,-0.6877,-0.6908,-0.6916,-0.6921,-0.6947,-0.6968,-0.7021,-0.7022,-0.7029,-0.7029,-0.7082,-0.7081,-0.708,-0.7047,-0.7043,-0.704,0,0,0,0,0,0,-0.6722,-0.6773,-0.6788,-0.6807,-0.6834,-0.6877,-0.6883,-0.6903,-0.6927,-0.693,-0.6966,-0.6975,-0.6993,-0.7014,-0.7013,-0.704,-0.7054,-0.7054,-0.7026,-0.7022,-0.702,-0.7014,-0.7042,0,0,0,0,0,-0.6716,-0.6736,-0.6779,-0.6791,-0.6804,-0.6841,-0.6855,-0.6876,-0.6906,-0.6917,-0.6946,-0.6973,-0.6996,-0.7011,-0.7034,-0.7049,-0.7059,-0.7053,-0.705,-0.7047,-0.7047,-0.7056,-0.7054,-0.7078,-0.7078,-0.7078,0,0,-0.6703,-0.6733,-0.6743,-0.6784,-0.6808,-0.6827,-0.6851,-0.687,-0.6885,-0.692,-0.6942,-0.6964,-0.6997,-0.7015,-0.7025,-0.7033,-0.7043,-0.7047,-0.7044,-0.7046,-0.7055,-0.7053,-0.7051,-0.7078,-0.7078,-0.7078,0,0,-0.6688,-0.6713,-0.6726,-0.6749,-0.6784,-0.6809,-0.6812,-0.6852,-0.6868,-0.6891,-0.6918,-0.6936,-0.6975,-0.6997,-0.7013,-0.7007,-0.7026,-0.7013,-0.6998,-0.7006,-0.7004,-0.7003,-0.7,-0.6998,-0.7014,-0.7013,-0.7013,0,-0.6667,-0.6697,-0.673,-0.6748,-0.6765,-0.6798,-0.6811,-0.6832,-0.6873,-0.6884,-0.6892,-0.6941,-0.6966,-0.699,-0.6988,-0.7001,-0.7005,-0.7009,-0.7002,-0.7001,-0.7,-0.6997,-0.6996,-0.7012,-0.7012,-0.7012,-0.7012,0,-0.667,-0.669,-0.6696,-0.6735,-0.6753,-0.6768,-0.6803,-0.6817,-0.6836,-0.686,-0.6882,-0.6913,-0.6943,-0.6951,-0.697,-0.6977,-0.6981,-0.6995,-0.7009,-0.6995,-0.6993,-0.6993,-0.7009,-0.701,-0.701,-0.7011,0,0,-0.6632,-0.6688,-0.669,-0.6707,-0.6748,-0.6765,-0.6781,-0.6811,-0.6822,-0.6849,-0.6863,-0.6896,-0.6909,-0.6928,-0.695,-0.6957,-0.6949,-0.6971,-0.6972,-0.6965,-0.6958,-0.6946,-0.6944,-0.6962,-0.6962,-0.6962,-0.6955,0,-0.6623,-0.6655,-0.6684,-0.6705,-0.6724,-0.6756,-0.677,-0.6797,-0.6819,-0.6838,-0.6863,-0.6885,-0.6902,-0.6913,-0.6922,-0.6948,-0.6948,-0.6949,-0.6975,-0.6976,-0.6965,-0.6944,-0.6932,-0.6923,-0.6954,-0.6954,-0.6954,0,-0.6617,-0.6642,-0.6665,-0.6703,-0.6712,-0.6725,-0.6754,-0.6772,-0.6803,-0.6818,-0.6839,-0.6862,-0.6881,-0.6894,-0.692,-0.692,-0.6932,-0.6947,-0.6947,-0.695,-0.6964,-0.6945,-0.6921,-0.6919,-0.6954,-0.6954,-0.6954,0,-0.6586,-0.6626,-0.6645,-0.6659,-0.6704,-0.6712,-0.6732,-0.6763,-0.6778,-0.6804,-0.6814,-0.6841,-0.6856,-0.6876,-0.6906,-0.6913,-0.6929,-0.6944,-0.6942,-0.6941,-0.6943,-0.6942,-0.6919,-0.6952,-0.6952,-0.6952,-0.6952,0,-0.6573,-0.6585,-0.6631,-0.6642,-0.6657,-0.6691,-0.6705,-0.6727,-0.6754,-0.677,-0.6799,-0.6813,-0.6852,-0.6871,-0.6895,-0.6912,-0.6919,-0.6932,-0.6938,-0.6929,-0.6927,-0.6937,-0.6938,-0.6952,-0.6952,-0.6952,-0.6952,0,-0.6541,-0.6572,-0.6594,-0.6636,-0.6646,-0.6655,-0.6691,-0.6702,-0.6727,-0.6746,-0.6753,-0.6791,-0.6814,-0.6846,-0.688,-0.6896,-0.691,-0.692,-0.6899,-0.6903,-0.6898,-0.6898,-0.688,-0.6879,-0.6913,-0.6913,-0.6912,0,-0.653,-0.654,-0.6582,-0.6595,-0.6613,-0.6633,-0.6649,-0.6683,-0.6699,-0.6734,-0.6741,-0.6767,-0.679,-0.6826,-0.6856,-0.6882,-0.6892,-0.6884,-0.6896,-0.6886,-0.6891,-0.689,-0.6891,-0.6881,-0.688,-0.688,-0.688,0,-0.6506,-0.6521,-0.6543,-0.657,-0.6589,-0.6612,-0.6636,-0.6645,-0.6684,-0.67,-0.6724,-0.6742,-0.6776,-0.6801,-0.683,-0.685,-0.6871,-0.6876,-0.6876,-0.6867,-0.6854,-0.686,-0.689,-0.6876,-0.6876,-0.6877,-0.6877,-0.6877,-0.6484,-0.6494,-0.6525,-0.6549,-0.6571,-0.6593,-0.6606,-0.6631,-0.6652,-0.6683,-0.6702,-0.6725,-0.6755,-0.6797,-0.6816,-0.6834,-0.6843,-0.6844,-0.6844,-0.6844,-0.684,-0.6852,-0.684,-0.684,-0.684,-0.684,-0.6841,0,-0.6461,-0.6483,-0.6504,-0.6537,-0.6555,-0.6574,-0.6602,-0.6616,-0.6636,-0.6662,-0.6684,-0.6711,-0.6736,-0.6768,-0.6794,-0.6803,-0.6813,-0.6809,-0.6808,-0.6812,-0.6832,-0.6828,-0.68,-0.68,-0.68,-0.68,-0.68,-0.68,-0.6452,-0.647,-0.6488,-0.6517,-0.6539,-0.6562,-0.6576,-0.6597,-0.6618,-0.6647,-0.6668,-0.6689,-0.6717,-0.6746,-0.6769,-0.6778,-0.6786,-0.6778,-0.679,-0.6807,-0.6811,-0.6814,-0.6811,-0.678,-0.678,-0.6769,-0.6768,-0.6768]}]]